Preview of NWS' New Version of Forecast
This preview is not operational and should not be used for support decisions.

Regional Weather Roundup (RWR)

Issued by National Weather Service (NWS)

                            
000
ASUS46 KSEW 161210
RWRWA 

WASHINGTON REGIONAL WEATHER ROUNDUP
NATIONAL WEATHER SERVICE SEATTLE WA
500 AM PDT MON SEP 16 2019

NOTE:"FAIR" INDICATES FEW OR NO CLOUDS BELOW 12,000 FEET WITH NO 
SIGNIFICANT WEATHER AND/OR OBSTRUCTIONS TO VISIBILITY.

WAZ507-509-555>559-161300-
SEATTLE, TACOMA, EVERETT, AND VICINITY
  
CITY           SKY/WX    TMP DP  RH WIND       PRES   REMARKS
EVERETT        MOCLDY    54  53  97 CALM      29.80R                  
6HR MIN TEMP:  52; 6HR MAX TEMP:  56;                                

BOEING FIELD   PTCLDY    54  52  93 CALM      29.79S                  
6HR MIN TEMP:  54; 6HR MAX TEMP:  59;                                

RENTON         PTCLDY    54  53  97 S3        29.79S FOG              
6HR MIN TEMP:  54; 6HR MAX TEMP:  58;                                

SEATAC AIRPORT PTCLDY    55  51  86 SE3       29.79S                  
6HR MIN TEMP:  54; 6HR MAX TEMP:  58;                                

JBLM-MCCHORD   PTCLDY    49  49 100 CALM      29.79S FOG              
6HR MIN TEMP:  48; 6HR MAX TEMP:  54;                                

PUYALLUP       MOCLDY    50  50 100 CALM      29.79S                  
BREMERTON      CLOUDY    54  54 100 S6        29.79S FOG              
6HR MIN TEMP:  53; 6HR MAX TEMP:  54;                                

JBLM-FT LEWIS  CLEAR     50  50 100 CALM      29.78S FOG              
6HR MIN TEMP:  48; 6HR MAX TEMP:  55; 6HR PCP: TRACE;                

TACOMA NARROWS MOCLDY    52  52 100 CALM      29.79S                  
6HR MIN TEMP:  50; 6HR MAX TEMP:  55;                                

$$
 
WAZ001-503-506-510-514-515-161300-
NORTH INTERIOR
  
CITY           SKY/WX    TMP DP  RH WIND       PRES   REMARKS
BELLINGHAM     CLOUDY    55  51  86 CALM      29.78R                  
6HR MIN TEMP:  54; 6HR MAX TEMP:  56;                                

FRIDAY HARBOR  CLOUDY    56  54  93 CALM      29.79R                  
6HR MIN TEMP:  51; 6HR MAX TEMP:  56;                                

EASTSOUND      CLOUDY    55  55 100 CALM      29.77S                  
PORT ANGELES   CLOUDY    50  49  96 SW6       29.78S                  
6HR MIN TEMP:  47; 6HR MAX TEMP:  50;                                

EDIZ HOOK      CLOUDY    50  49  99 CALM      29.78R                  
6HR MIN TEMP:  48; 6HR MAX TEMP:  52;                                

PORT TOWNSEND  FOG       48  48 100 CALM      29.78R VSB 1/4          
NAS WHIDBEY    CLOUDY    59  54  83 S5        29.82R                  
6HR MIN TEMP:  58; 6HR MAX TEMP:  61;                                

ARLINGTON      CLOUDY    56  54  93 S3        29.80R                  
6HR MIN TEMP:  55; 6HR MAX TEMP:  57;                                

BURLINGTON     CLOUDY    57  57 100 CALM      29.79R                  
$$
 
WAZ020-022-039-040-504-511-512-161300-
SOUTHWEST INTERIOR
  
CITY           SKY/WX    TMP DP  RH WIND       PRES   REMARKS
SHELTON        FOG       52  50  93 NW3       29.77S VSB 1/4          
6HR MIN TEMP:  51; 6HR MAX TEMP:  55;                                

OLYMPIA        PTCLDY    54  52  93 W5        29.79S                  
6HR MIN TEMP:  52; 6HR MAX TEMP:  56;                                

CHEHALIS       CLOUDY    55  55 100 CALM      29.79F                  
KELSO          MOCLDY    55  54  96 E3        29.80S                  
6HR MIN TEMP:  54; 6HR MAX TEMP:  58;                                

VANCOUVER      MOCLDY    58  54  86 CALM      29.80R                  
6HR MIN TEMP:  58; 6HR MAX TEMP:  59; 6HR PCP: TRACE;                

SCAPPOOSE, OR  CLOUDY    52  51  97 CALM      29.79R                  
6HR MIN TEMP:  51; 6HR MAX TEMP:  57;                                

PORTLAND, OR   CLOUDY    58  54  86 SW7       29.80S                  
6HR MIN TEMP:  58; 6HR MAX TEMP:  59; 6HR PCP: TRACE;                

$$
 
WAZ021-516-517-161300-
WASHINGTON COAST
  
CITY           SKY/WX    TMP DP  RH WIND       PRES   REMARKS
FORKS          PTCLDY    51  50  96 E7        29.76S                  
6HR MIN TEMP:  51; 6HR MAX TEMP:  54; 6HR PCP:  0.43;                

HOQUIAM        CLOUDY    55  53  93 E8        29.78R                  
6HR MIN TEMP:  55; 6HR MAX TEMP:  59; 6HR PCP:  0.09;                

ASTORIA, OR    CLOUDY    53  51  93 W3        29.78R                  
6HR MIN TEMP:  52; 6HR MAX TEMP:  55; 6HR PCP:  0.05;                

$$
 
WAZ019-023-024-040-567>569-161300-
CASCADE MOUNTAINS AND COLUMBIA GORGE
  
CITY           SKY/WX    TMP DP  RH WIND       PRES   REMARKS
STAMPEDE PASS  NOT AVBL                                               
TROUTDALE, OR  CLOUDY    59  54  83 SW3       29.80S                  
6HR MIN TEMP:  59; 6HR MAX TEMP:  60; 6HR PCP: TRACE;                

HOOD RIVER, OR CLOUDY    54  54 100 CALM      29.80R                  
THE DALLES, OR CLOUDY    56  53  90 S3        29.78S                  
6HR MIN TEMP:  56; 6HR MAX TEMP:  57;                                

$$

WAZ026-027-041>044-520-521-161300-
EAST SLOPES
  
CITY           SKY/WX    TMP DP  RH WIND       PRES   REMARKS
OMAK           MOCLDY    52  47  83 W6        29.75R                  
6HR MIN TEMP:  51; 6HR MAX TEMP:  59;                                

WENATCHEE      MOCLDY    53  46  77 NW6       29.74S                  
6HR MIN TEMP:  53; 6HR MAX TEMP:  56;                                

ELLENSBURG     PTCLDY    50  46  86 NW5       29.77S                  
6HR MIN TEMP:  50; 6HR MAX TEMP:  56; 6HR PCP:  0.01;                

YAKIMA         MOCLDY    48  46  93 W7        29.76F                  
6HR MIN TEMP:  48; 6HR MAX TEMP:  56;                                

SUNNYSIDE ARPT CLOUDY    52  51  97 CALM      29.77R                  
6HR MIN TEMP:  51; 6HR MAX TEMP:  56;                                

YAKIMA TC      PTSUNNY   49  46  90 CALM      29.75S                  
6HR MIN TEMP:  48; 6HR MAX TEMP:  54; 6HR PCP:  0.01;                

$$

WAZ028-034-035-161300-
COLUMBIA BASIN
  
CITY           SKY/WX    TMP DP  RH WIND       PRES   REMARKS
EPHRATA        CLOUDY    54  51  90 CALM      29.74S                  
6HR MIN TEMP:  54; 6HR MAX TEMP:  58;                                

MOSES LAKE     CLOUDY    55  51  86 SE5       29.75S                  
6HR MIN TEMP:  55; 6HR MAX TEMP:  61; 6HR PCP: TRACE;                

PASCO          LGT RAIN  59  53  80 S9        29.76F                  
6HR MIN TEMP:  59; 6HR MAX TEMP:  65; 6HR PCP: TRACE;                

RICHLAND ARPT  CLOUDY    59  54  82 SE5       29.77                   
6HR MIN TEMP:  58; 6HR MAX TEMP:  64; 6HR PCP:  0.01;                

HERMISTON, OR  LGT RAIN  57  53  86 S3        29.77S                  
6HR MIN TEMP:  57; 6HR MAX TEMP:  61; 6HR PCP: TRACE;                

$$

WAZ036>038-161300-
NORTHEAST WASHINGTON
  
CITY           SKY/WX    TMP DP  RH WIND       PRES   REMARKS
SPOKANE GEIGER CLOUDY    55  44  66 S7        29.79R                  
6HR MIN TEMP:  55; 6HR MAX TEMP:  60;                                

SPOKANE FELTS  CLOUDY    58  46  64 SW3       29.79R                  
6HR MIN TEMP:  57; 6HR MAX TEMP:  63;                                

FAIRCHILD AFB  CLOUDY    53  46  75 S7        29.79R                  
6HR MIN TEMP:  53; 6HR MAX TEMP:  58;                                

COEURDALENE,ID CLOUDY    55  45  68 W6        29.79R                  
6HR MIN TEMP:  53; 6HR MAX TEMP:  60;                                

DEER PARK      CLOUDY    53  46  77 SE3       29.79R                  
6HR MIN TEMP:  53; 6HR MAX TEMP:  59;                                

$$

WAZ029>033-161300-
SOUTHEAST WASHINGTON
  
CITY           SKY/WX    TMP DP  RH WIND       PRES   REMARKS
PULLMAN        CLOUDY    52  43  71 CALM      29.81S                  
6HR MIN TEMP:  51; 6HR MAX TEMP:  59;                                

LEWISTON, ID   CLOUDY    60  44  55 SE5       29.77R                  
6HR MIN TEMP:  59; 6HR MAX TEMP:  65;                                

WALLA WALLA    CLOUDY    58  46  64 SE5       29.78S                  
6HR MIN TEMP:  58; 6HR MAX TEMP:  64;                                

PENDLETON, OR  CLOUDY    54  46  74 CALM      29.78S                  
6HR MIN TEMP:  53; 6HR MAX TEMP:  58;                                

$$